Hourly Data Report for October 28, 2016

All times are specified in Local Standard Time (LST). Add 1 hour to adjust for Daylight Saving Time where and when it is observed.

BAKER LAKE A
NUNAVUT

64°17'56.000" N
96°04'40.000" W
18.60 m
2300503
71926
YBK

Download Data

Hourly Data (October 2016)
Hourly Data Report for October 28, 2016
Temp Definition
°C
Dew Point Temp Definition
°C
Rel Hum Definition
%
Wind Dir Definition
10's deg

Wind Spd Definition
km/h
Visibility Definition
km
Stn Press Definition
kPa
Hmdx Definition


Wind Chill Definition


Weather Definition


TIME
00:00 Legend Double Dagger -18.8 -21.7 78 33 24 24.1 101.80   -30 Clear
01:00 Legend Double Dagger -19.0 -21.8 79 34 23 24.1 101.84   -30 LegendNANA
02:00 Legend Double Dagger -18.4 -20.5 84 32 18 24.1 101.90   -28 LegendNANA
03:00 Legend Double Dagger -19.0 -20.8 86 32 22 24.1 101.91   -30 Clear
04:00 Legend Double Dagger -18.2 -19.5 90 33 21 22.5 101.92   -28 LegendNANA
05:00 Legend Double Dagger -17.9 -19.7 86 34 18 24.1 101.92   -27 LegendNANA
06:00 Legend Double Dagger -18.9 -21.1 83 33 19 22.5 101.91   -29 Cloudy
07:00 Legend Double Dagger -19.2 -21.0 86 33 19 22.5 101.90   -29 LegendNANA
08:00 Legend Double Dagger -19.3 -21.4 84 33 15 12.9 101.85   -28 LegendNANA
09:00 Legend Double Dagger -18.7 -20.6 85 32 9 16.1 101.81   -25 Mostly Cloudy
10:00 Legend Double Dagger -18.8 -20.9 84 33 8 16.1 101.77   -25 LegendNANA
11:00 Legend Double Dagger -18.4 -20.6 83 26 7 24.1 101.74   -24 LegendNANA
12:00 Legend Double Dagger -18.0 -20.2 83 33 3 16.1 101.68   -20 Snow
13:00 Legend Double Dagger -17.4 -19.6 83 35 4 4.0 101.59   -21 Snow
14:00 Legend Double Dagger -16.9 -19.0 84 2 4 4.8 101.50   -20 Snow
15:00 Legend Double Dagger -15.9 -17.9 85 14 5 6.4 101.39   -20 Snow
16:00 Legend Double Dagger -15.3 -17.3 85 13 9 4.8 101.30   -21 Snow
17:00 Legend Double Dagger -14.3 -16.2 86 12 18 6.4 101.14   -23 Snow
18:00 Legend Double Dagger -13.6 -15.3 87 14 20 9.7 101.01   -22 Snow
19:00 Legend Double Dagger -12.8 -14.5 87 12 24 4.0 100.92   -22 Snow
20:00 Legend Double Dagger -12.3 -13.9 88 12 24 4.8 100.81   -22 Snow,Blowing Snow
21:00 Legend Double Dagger -11.8 -13.6 87 11 22 3.2 100.72   -21 Snow,Blowing Snow
22:00 Legend Double Dagger -14.4 -16.4 85 6 21 2.8 100.66   -24 Snow,Blowing Snow
23:00 Legend Double Dagger -14.7 -16.7 85 6 23 4.0 100.59   -24 Snow,Blowing Snow

Notes on Data Quality.

Legend

  • E = Estimated
  • M = Missing
  • NA = Not Available
  • ‡ = Partner data that is not subject to review by the National Climate Archives
Date modified: